CZ-4C R/B (48341 NORAD) Tracking and Keplerian Element Data

This shows tracking and keplerian element data for the satellite.

Feedback or suggestion? Click here.




ElementValue
Catalog48341
NameCZ-4C R/B
Epoch Orbit410
Epoch Day150.5173258
Epoch Year2021
RAAN198.818
Inclination63.4507
Eccentricity0.0074435
Argument of Perigee50.2337
Mean Anonmoly310.5222
Mean Motion13.59614491
Decay Rate-6.5E-07
L11 48341U 21037B 21150.51732580 -.00000065 00000-0 37713-4 0 9990
L22 48341 63.4507 198.8180 0074435 50.2337 310.5222 13.59614491 4108



Live tracking and technical data element details for CZ-4C R/B (NORAD 48341). CZ-4C R/B can be tracked NOW for your location showing map with azimuth and elevation plus other details from your city location.







IsCatalogInMostPopularTable: catalog: 48341, numindb: 90
Update: records affected: 1



GetName: 48341 CZ-4C R/B

Hit Count: updated at: Sun, 11 Jun 2023 01:41:39 GMT